• In Germany
  • List of Countries
  • For 7 days
  • Water Temperature
  • Satellite Maps
  • Weather Map
  • Weather Widgets
  • user-avatar
    Login

    Hourly Weather Yulara

    Today, 27 March, Monday

    Time Temperature Precipitation Wind Pressure Humidity
    00:00 +32°C° 0 mm 2 mps 714 mmHg 19%
    01:00 +31°C° 0 mm 3 mps 714 mmHg 21%
    02:00 +31°C° 0 mm 3 mps 714 mmHg 22%
    03:00 +32°C° 0 mm 4 mps 714 mmHg 25%
    04:00 +30°C° 0 mm 6 mps 715 mmHg 30%
    05:00 +30°C° 0 mm 7 mps 715 mmHg 34%
    06:00 +31°C° 0 mm 9 mps 715 mmHg 39%
    07:00 +31°C° 0 mm 9 mps 716 mmHg 41%
    08:00 +32°C° 0 mm 10 mps 716 mmHg 42%
    09:00 +32°C° 0 mm 11 mps 717 mmHg 43%
    10:00 +34°C° 0 mm 11 mps 717 mmHg 40%
    11:00 +36°C° 0 mm 11 mps 717 mmHg 36%
    12:00 +37°C° 0 mm 10 mps 717 mmHg 33%
    13:00 +38°C° 0 mm 10 mps 717 mmHg 31%
    14:00 +38°C° 0 mm 10 mps 716 mmHg 30%
    15:00 +39°C° 0 mm 10 mps 716 mmHg 28%
    16:00 +38°C° 0 mm 10 mps 716 mmHg 30%
    17:00 +36°C° 0 mm 10 mps 716 mmHg 32%
    18:00 +34°C° 0 mm 9 mps 716 mmHg 33%
    19:00 +33°C° 0 mm 9 mps 717 mmHg 35%
    20:00 +32°C° 0 mm 8 mps 717 mmHg 36%
    21:00 +30°C° 0 mm 7 mps 718 mmHg 38%
    22:00 +29°C° 0 mm 7 mps 718 mmHg 37%
    23:00 +28°C° 0 mm 7 mps 718 mmHg 37%

    Tomorrow, 28 March, Tuesday

    Time Temperature Precipitation Wind Pressure Humidity
    00:00 +27°C° 0 mm 6 mps 718 mmHg 37%
    01:00 +27°C° 0 mm 6 mps 718 mmHg 37%
    02:00 +26°C° 0 mm 5 mps 718 mmHg 36%
    03:00 +26°C° 0 mm 5 mps 717 mmHg 36%
    04:00 +25°C° 0 mm 4 mps 717 mmHg 35%
    05:00 +25°C° 0 mm 4 mps 717 mmHg 35%
    06:00 +23°C° 0 mm 4 mps 717 mmHg 35%
    07:00 +26°C° 0 mm 5 mps 718 mmHg 32%
    08:00 +27°C° 0 mm 6 mps 718 mmHg 29%
    09:00 +28°C° 0 mm 6 mps 718 mmHg 26%
    10:00 +30°C° 0 mm 6 mps 718 mmHg 25%
    11:00 +33°C° 0 mm 6 mps 718 mmHg 23%
    12:00 +35°C° 0 mm 6 mps 718 mmHg 22%
    13:00 +36°C° 0 mm 5 mps 717 mmHg 21%
    14:00 +36°C° 0 mm 5 mps 716 mmHg 20%
    15:00 +37°C° 0 mm 4 mps 716 mmHg 19%
    16:00 +37°C° 0 mm 4 mps 716 mmHg 20%
    17:00 +36°C° 0 mm 4 mps 716 mmHg 21%
    18:00 +35°C° 0 mm 4 mps 715 mmHg 22%
    19:00 +34°C° 0 mm 5 mps 716 mmHg 24%
    20:00 +33°C° 0 mm 6 mps 716 mmHg 25%
    21:00 +30°C° 0 mm 6 mps 717 mmHg 27%
    22:00 +29°C° 0 mm 6 mps 717 mmHg 28%
    23:00 +29°C° 0 mm 6 mps 717 mmHg 29%

    Day after tomorrow, 29 March, Wednesday

    Time Temperature Precipitation Wind Pressure Humidity
    00:00 +28°C° 0 mm 6 mps 717 mmHg 30%
    01:00 +27°C° 0 mm 5 mps 716 mmHg 31%
    02:00 +26°C° 0 mm 5 mps 716 mmHg 31%
    03:00 +26°C° 0 mm 5 mps 716 mmHg 32%
    04:00 +25°C° 0 mm 4 mps 716 mmHg 32%
    05:00 +25°C° 0 mm 4 mps 716 mmHg 32%
    06:00 +24°C° 0 mm 3 mps 716 mmHg 33%
    07:00 +26°C° 0 mm 4 mps 717 mmHg 30%
    08:00 +28°C° 0 mm 4 mps 718 mmHg 26%
    09:00 +29°C° 0 mm 4 mps 718 mmHg 23%
    10:00 +32°C° 0 mm 5 mps 718 mmHg 21%
    11:00 +34°C° 0 mm 5 mps 718 mmHg 20%
    12:00 +36°C° 0 mm 5 mps 718 mmHg 18%
    13:00 +37°C° 0 mm 5 mps 717 mmHg 18%
    14:00 +37°C° 0 mm 5 mps 717 mmHg 17%
    15:00 +39°C° 0 mm 6 mps 716 mmHg 17%
    16:00 +38°C° 0 mm 6 mps 717 mmHg 18%
    17:00 +36°C° 0 mm 7 mps 717 mmHg 19%
    18:00 +34°C° 0 mm 7 mps 717 mmHg 20%
    19:00 +33°C° 0 mm 8 mps 718 mmHg 20%
    20:00 +32°C° 0 mm 8 mps 718 mmHg 21%
    21:00 +29°C° 0 mm 9 mps 719 mmHg 21%
    22:00 +28°C° 0 mm 9 mps 719 mmHg 23%
    23:00 +27°C° 0 mm 9 mps 720 mmHg 24%

    30 March, Thursday

    Time Temperature Precipitation Wind Pressure Humidity
    00:00 +24°C° 0 mm 9 mps 720 mmHg 26%
    01:00 +23°C° 0 mm 9 mps 720 mmHg 33%
    02:00 +22°C° 0 mm 9 mps 720 mmHg 39%
    03:00 +21°C° 0 mm 9 mps 720 mmHg 46%
    04:00 +19°C° 0 mm 9 mps 720 mmHg 52%
    05:00 +18°C° 0 mm 9 mps 720 mmHg 59%
    06:00 +17°C° 0 mm 9 mps 720 mmHg 66%
    07:00 +17°C° 0 mm 9 mps 721 mmHg 62%
    08:00 +18°C° 0 mm 9 mps 721 mmHg 58%
    09:00 +18°C° 0 mm 9 mps 722 mmHg 54%
    10:00 +22°C° 0 mm 9 mps 721 mmHg 45%
    11:00 +24°C° 0 mm 8 mps 721 mmHg 37%
    12:00 +27°C° 0 mm 8 mps 721 mmHg 28%
    13:00 +28°C° 0 mm 8 mps 720 mmHg 25%
    14:00 +29°C° 0 mm 7 mps 720 mmHg 21%
    15:00 +30°C° 0 mm 7 mps 719 mmHg 18%
    16:00 +28°C° 0 mm 7 mps 719 mmHg 18%
    17:00 +27°C° 0 mm 6 mps 719 mmHg 19%
    18:00 +26°C° 0 mm 6 mps 720 mmHg 20%
    19:00 +23°C° 0 mm 6 mps 720 mmHg 23%
    20:00 +22°C° 0 mm 5 mps 721 mmHg 25%
    21:00 +20°C° 0 mm 5 mps 721 mmHg 28%
    22:00 +19°C° 0 mm 5 mps 721 mmHg 30%
    23:00 +19°C° 0 mm 5 mps 721 mmHg 31%

    31 March, Friday

    Time Temperature Precipitation Wind Pressure Humidity
    00:00 +17°C° 0 mm 5 mps 721 mmHg 33%
    01:00 +16°C° 0 mm 5 mps 721 mmHg 34%
    02:00 +15°C° 0 mm 5 mps 721 mmHg 35%
    03:00 +15°C° 0 mm 4 mps 720 mmHg 36%
    04:00 +14°C° 0 mm 4 mps 721 mmHg 37%
    05:00 +14°C° 0 mm 4 mps 721 mmHg 37%
    06:00 +13°C° 0 mm 4 mps 721 mmHg 37%
    07:00 +15°C° 0 mm 4 mps 721 mmHg 33%
    08:00 +17°C° 0 mm 5 mps 722 mmHg 29%
    09:00 +19°C° 0 mm 6 mps 722 mmHg 24%
    10:00 +21°C° 0 mm 6 mps 722 mmHg 22%
    11:00 +23°C° 0 mm 5 mps 721 mmHg 20%
    12:00 +26°C° 0 mm 5 mps 721 mmHg 17%
    13:00 +27°C° 0 mm 5 mps 720 mmHg 16%
    14:00 +28°C° 0 mm 5 mps 720 mmHg 15%
    15:00 +29°C° 0 mm 6 mps 719 mmHg 13%
    16:00 +28°C° 0 mm 5 mps 720 mmHg 14%
    17:00 +27°C° 0 mm 5 mps 720 mmHg 16%
    18:00 +26°C° 0 mm 5 mps 720 mmHg 17%
    19:00 +23°C° 0 mm 5 mps 720 mmHg 19%
    20:00 +22°C° 0 mm 5 mps 721 mmHg 22%
    21:00 +20°C° 0 mm 5 mps 721 mmHg 24%
    22:00 +19°C° 0 mm 5 mps 721 mmHg 26%
    23:00 +19°C° 0 mm 5 mps 721 mmHg 28%

    1 April, Saturday

    Time Temperature Precipitation Wind Pressure Humidity
    00:00 +18°C° 0 mm 4 mps 721 mmHg 30%
    01:00 +17°C° 0 mm 4 mps 721 mmHg 33%
    02:00 +17°C° 0 mm 4 mps 721 mmHg 35%
    03:00 +15°C° 0 mm 4 mps 721 mmHg 37%
    04:00 +15°C° 0 mm 4 mps 721 mmHg 39%
    05:00 +14°C° 0 mm 4 mps 721 mmHg 40%
    06:00 +14°C° 0 mm 4 mps 722 mmHg 42%
    07:00 +15°C° 0 mm 5 mps 722 mmHg 39%
    08:00 +17°C° 0 mm 7 mps 723 mmHg 36%
    09:00 +20°C° 0 mm 8 mps 723 mmHg 32%
    10:00 +21°C° 0 mm 8 mps 723 mmHg 29%
    11:00 +23°C° 0 mm 8 mps 722 mmHg 25%
    12:00 +26°C° 0 mm 8 mps 722 mmHg 22%
    13:00 +26°C° 0 mm 8 mps 721 mmHg 21%
    14:00 +27°C° 0 mm 8 mps 721 mmHg 20%
    15:00 +28°C° 0 mm 8 mps 720 mmHg 18%
    16:00 +27°C° 0 mm 8 mps 720 mmHg 20%
    17:00 +26°C° 0 mm 7 mps 721 mmHg 22%
    18:00 +23°C° 0 mm 7 mps 721 mmHg 24%
    19:00 +22°C° 0 mm 6 mps 721 mmHg 27%
    20:00 +21°C° 0 mm 6 mps 722 mmHg 29%
    21:00 +19°C° 0 mm 6 mps 722 mmHg 32%
    22:00 +19°C° 0 mm 5 mps 722 mmHg 34%
    23:00 +17°C° 0 mm 5 mps 722 mmHg 36%
    Show more